Content
SEND FEEDBACK

Daily
Averages
Monthly
Summary
United States of America

SOUTH LAKE TAHOE, CALIFORNIA


Home > North America > United States > California
Elevation: 6263 feet     Latitude: 38 53N     Longitude: 119 59W

WEATHER
 
SELECT A DAY
Number of Records: 178,720;   Date Range: 1/1/95 - 12/21/14
 
SHARE

PRINT THIS DATA

[ ← Previous Day ]
WEATHER ALMANAC - MAY 22, 2013
[ Next Day → ]
[ °C ]   °F
Weather ElementAverageHighLow
Temperature46.4 °F55 °F (11:53 am)30 °F (11:53 pm)
Dewpoint16.4 °F23 °F (4:53 am)7 °F (11:53 am)
Humidity32.5 %61 % (11:53 pm)15 % (11:53 am)
Barometer29.77 in29.83 in (10:53 pm)29.73 in (5:53 am)
Wind Speed7.3 mph17.3 mph (12:53 pm)
Wind Gust25.3 mph (12:53 pm)
Weather ElementAverage
Visibility10 mi
Wind DirectionESE (123.5 °)

Weather ElementTotal
Precipitation---
Heating Degree Days22.5 (Base 65)
Averaged from 23 records on May 22, 2013
WEATHER CONDITIONS BREAKOUT
WIND DIRECTION BREAKOUT
WEATHER BY HOUR - MAY 22, 2013
[ °C ]   °F
Local TimeTemperatureDewpointHumidityBarometerVisibilityWind DirectionWind SpeedGust SpeedPrecipitationEventsConditions
1:53 AM45.0 °F19.9 °F37 %29.75 in10.0 miSSE (150°)9.2 mphClear
2:53 AM45.0 °F16.0 °F31 %29.74 in10.0 miCalmClear
3:53 AM42.1 °F16.0 °F35 %29.75 in10.0 miESE (110°)3.5 mphClear
4:53 AM42.1 °F23.0 °F47 %29.74 in10.0 miSSE (150°)5.8 mphClear
5:53 AM42.1 °F19.9 °F41 %29.73 in10.0 miSE (130°)8.1 mphClear
6:53 AM45.0 °F14.0 °F29 %29.73 in10.0 miSouth (170°)10.4 mph19.6 mphClear
7:53 AM48.0 °F16.0 °F28 %29.73 in10.0 miSouth (170°)10.4 mphClear
8:53 AM48.9 °F21.0 °F33 %29.75 in10.0 miSouth (180°)9.2 mphClear
9:53 AM51.1 °F17.1 °F26 %29.76 in10.0 miVariable5.8 mph19.6 mphClear
10:53 AM52.0 °F17.1 °F25 %29.76 in10.0 miSW (220°)6.9 mph18.4 mphClear
11:53 AM55.0 °F7.0 °F15 %29.75 in10.0 miSouth (190°)15.0 mph23.0 mphClear
12:53 PM55.0 °F16.0 °F22 %29.75 in10.0 miSouth (190°)17.3 mph25.3 mphClear
1:53 PM55.0 °F16.0 °F22 %29.76 in10.0 miSSW (210°)10.4 mph23.0 mphPartly Cloudy
2:53 PM53.1 °F12.0 °F20 %29.77 in10.0 miSSW (210°)10.4 mph23.0 mphClear
3:53 PM53.1 °F12.9 °F20 %29.78 in10.0 miSW (220°)8.1 mph19.6 mphClear
4:53 PM52.0 °F12.0 °F20 %29.79 in10.0 miSouth (180°)13.8 mph21.9 mphClear
5:53 PM48.9 °F12.0 °F23 %29.80 in10.0 miSouth (190°)11.5 mphClear
6:53 PM46.9 °F14.0 °F27 %29.79 in10.0 miVariable5.8 mphClear
7:53 PM43.0 °F18.0 °F37 %29.81 in10.0 miCalmClear
8:53 PM39.9 °F19.0 °F43 %29.81 in10.0 miCalmClear
9:53 PM39.0 °F19.9 °F46 %29.82 in10.0 miSouth (170°)5.8 mphClear
10:53 PM34.0 °F21.0 °F59 %29.83 in10.0 miCalmClear
11:53 PM30.0 °F18.0 °F61 %29.83 in10.0 miCalmClear
Hourly data recorded from KTVL, located miles away from South Lake Tahoe, California







STORIES FROM OUR PARTNERS